owner,sensor,date,latitude,longitude,sea_surface_height_above_sea_level,qcFlag 
COMPS,ioos:station:USF.COMPS:BGC:1,2015-11-01T07:00:00Z,26.4040,-81.8810,0.444,1111122 
COMPS,ioos:station:USF.COMPS:BGC:1,2015-11-01T07:06:00Z,26.4040,-81.8810,0.441,1111122 
COMPS,ioos:station:USF.COMPS:BGC:1,2015-11-01T07:12:00Z,26.4040,-81.8810,0.447,1111122 
COMPS,ioos:station:USF.COMPS:BGC:1,2015-11-01T07:18:00Z,26.4040,-81.8810,0.45,1111122 
COMPS,ioos:station:USF.COMPS:BGC:1,2015-11-01T07:24:00Z,26.4040,-81.8810,0.448,1111122 
COMPS,ioos:station:USF.COMPS:BGC:1,2015-11-01T07:30:00Z,26.4040,-81.8810,0.461,1111122 
COMPS,ioos:station:USF.COMPS:BGC:1,2015-11-01T07:36:00Z,26.4040,-81.8810,0.46,1111122 
COMPS,ioos:station:USF.COMPS:BGC:1,2015-11-01T07:42:00Z,26.4040,-81.8810,0.466,1111122 
COMPS,ioos:station:USF.COMPS:BGC:1,2015-11-01T07:48:00Z,26.4040,-81.8810,0.464,1111122 
COMPS,ioos:station:USF.COMPS:BGC:1,2015-11-01T07:54:00Z,26.4040,-81.8810,0.469,1111122 
COMPS,ioos:station:USF.COMPS:BGC:1,2015-11-01T08:00:00Z,26.4040,-81.8810,0.46,1111122 
COMPS,ioos:station:USF.COMPS:BGC:1,2015-11-01T08:06:00Z,26.4040,-81.8810,0.47,1111122 
COMPS,ioos:station:USF.COMPS:BGC:1,2015-11-01T08:12:00Z,26.4040,-81.8810,0.469,1111122 
COMPS,ioos:station:USF.COMPS:BGC:1,2015-11-01T08:18:00Z,26.4040,-81.8810,0.466,1111122 
COMPS,ioos:station:USF.COMPS:BGC:1,2015-11-01T08:24:00Z,26.4040,-81.8810,0.47,1111122 
COMPS,ioos:station:USF.COMPS:BGC:1,2015-11-01T08:30:00Z,26.4040,-81.8810,0.467,1111122 
COMPS,ioos:station:USF.COMPS:BGC:1,2015-11-01T08:36:00Z,26.4040,-81.8810,0.465,1111122 
COMPS,ioos:station:USF.COMPS:BGC:1,2015-11-01T08:42:00Z,26.4040,-81.8810,0.471,1111122 
COMPS,ioos:station:USF.COMPS:BGC:1,2015-11-01T08:48:00Z,26.4040,-81.8810,0.462,1111122 
COMPS,ioos:station:USF.COMPS:BGC:1,2015-11-01T08:54:00Z,26.4040,-81.8810,0.443,1111122 
COMPS,ioos:station:USF.COMPS:BGC:1,2015-11-01T09:00:00Z,26.4040,-81.8810,0.447,1111122 
COMPS,ioos:station:USF.COMPS:BGC:1,2015-11-01T09:06:00Z,26.4040,-81.8810,0.43,1111122 
COMPS,ioos:station:USF.COMPS:BGC:1,2015-11-01T09:12:00Z,26.4040,-81.8810,0.423,1111122 
COMPS,ioos:station:USF.COMPS:BGC:1,2015-11-01T09:18:00Z,26.4040,-81.8810,0.419,1111122 
COMPS,ioos:station:USF.COMPS:BGC:1,2015-11-01T09:24:00Z,26.4040,-81.8810,0.401,1111122 
COMPS,ioos:station:USF.COMPS:BGC:1,2015-11-01T09:30:00Z,26.4040,-81.8810,0.406,1111122 
COMPS,ioos:station:USF.COMPS:BGC:1,2015-11-01T09:36:00Z,26.4040,-81.8810,0.399,1111122 
COMPS,ioos:station:USF.COMPS:BGC:1,2015-11-01T09:42:00Z,26.4040,-81.8810,0.379,1111122 
COMPS,ioos:station:USF.COMPS:BGC:1,2015-11-01T09:48:00Z,26.4040,-81.8810,0.374,1111122 
COMPS,ioos:station:USF.COMPS:BGC:1,2015-11-01T09:54:00Z,26.4040,-81.8810,0.361,1111122 
COMPS,ioos:station:USF.COMPS:BGC:1,2015-11-01T10:00:00Z,26.4040,-81.8810,0.346,1111122 
COMPS,ioos:station:USF.COMPS:BGC:1,2015-11-01T10:06:00Z,26.4040,-81.8810,0.339,1111122 
COMPS,ioos:station:USF.COMPS:BGC:1,2015-11-01T10:12:00Z,26.4040,-81.8810,0.333,1111122 
COMPS,ioos:station:USF.COMPS:BGC:1,2015-11-01T10:18:00Z,26.4040,-81.8810,0.322,1111122 
COMPS,ioos:station:USF.COMPS:BGC:1,2015-11-01T10:24:00Z,26.4040,-81.8810,0.304,1111122 
COMPS,ioos:station:USF.COMPS:BGC:1,2015-11-01T10:30:00Z,26.4040,-81.8810,0.296,1111122 
COMPS,ioos:station:USF.COMPS:BGC:1,2015-11-01T10:36:00Z,26.4040,-81.8810,0.287,1111122 
COMPS,ioos:station:USF.COMPS:BGC:1,2015-11-01T10:42:00Z,26.4040,-81.8810,0.277,1111122 
COMPS,ioos:station:USF.COMPS:BGC:1,2015-11-01T10:48:00Z,26.4040,-81.8810,0.267,1111122 
COMPS,ioos:station:USF.COMPS:BGC:1,2015-11-01T10:54:00Z,26.4040,-81.8810,0.246,1111122 
COMPS,ioos:station:USF.COMPS:BGC:1,2015-11-01T11:00:00Z,26.4040,-81.8810,0.231,1111122 
COMPS,ioos:station:USF.COMPS:BGC:1,2015-11-01T11:06:00Z,26.4040,-81.8810,0.229,1111122 
COMPS,ioos:station:USF.COMPS:BGC:1,2015-11-01T11:12:00Z,26.4040,-81.8810,0.217,1111122 
COMPS,ioos:station:USF.COMPS:BGC:1,2015-11-01T11:18:00Z,26.4040,-81.8810,0.199,1111122 
COMPS,ioos:station:USF.COMPS:BGC:1,2015-11-01T11:24:00Z,26.4040,-81.8810,0.191,1111122 
COMPS,ioos:station:USF.COMPS:BGC:1,2015-11-01T11:30:00Z,26.4040,-81.8810,0.177,1111122 
COMPS,ioos:station:USF.COMPS:BGC:1,2015-11-01T11:36:00Z,26.4040,-81.8810,0.164,1111122 
COMPS,ioos:station:USF.COMPS:BGC:1,2015-11-01T11:42:00Z,26.4040,-81.8810,0.154,1111122 
COMPS,ioos:station:USF.COMPS:BGC:1,2015-11-01T11:48:00Z,26.4040,-81.8810,0.14,1111122 
COMPS,ioos:station:USF.COMPS:BGC:1,2015-11-01T11:54:00Z,26.4040,-81.8810,0.128,1111122 
COMPS,ioos:station:USF.COMPS:BGC:1,2015-11-01T12:00:00Z,26.4040,-81.8810,0.109,1111122 
COMPS,ioos:station:USF.COMPS:BGC:1,2015-11-01T12:06:00Z,26.4040,-81.8810,0.101,1111122 
COMPS,ioos:station:USF.COMPS:BGC:1,2015-11-01T12:12:00Z,26.4040,-81.8810,0.087,1111122 
COMPS,ioos:station:USF.COMPS:BGC:1,2015-11-01T12:18:00Z,26.4040,-81.8810,0.066,1111122 
COMPS,ioos:station:USF.COMPS:BGC:1,2015-11-01T12:24:00Z,26.4040,-81.8810,0.051,1111122 
COMPS,ioos:station:USF.COMPS:BGC:1,2015-11-01T12:30:00Z,26.4040,-81.8810,0.041,1111122 
COMPS,ioos:station:USF.COMPS:BGC:1,2015-11-01T12:36:00Z,26.4040,-81.8810,0.02,1111122 
COMPS,ioos:station:USF.COMPS:BGC:1,2015-11-01T12:42:00Z,26.4040,-81.8810,0.006,1111122 
COMPS,ioos:station:USF.COMPS:BGC:1,2015-11-01T12:48:00Z,26.4040,-81.8810,-0.012,1111122 
COMPS,ioos:station:USF.COMPS:BGC:1,2015-11-01T12:54:00Z,26.4040,-81.8810,-0.028,1111122 
COMPS,ioos:station:USF.COMPS:BGC:1,2015-11-01T13:00:00Z,26.4040,-81.8810,-0.044,1111122 
COMPS,ioos:station:USF.COMPS:BGC:1,2015-11-01T13:06:00Z,26.4040,-81.8810,-0.058,1111122 
COMPS,ioos:station:USF.COMPS:BGC:1,2015-11-01T13:12:00Z,26.4040,-81.8810,-0.078,1111122 
COMPS,ioos:station:USF.COMPS:BGC:1,2015-11-01T13:18:00Z,26.4040,-81.8810,-0.091,1111122 
COMPS,ioos:station:USF.COMPS:BGC:1,2015-11-01T13:24:00Z,26.4040,-81.8810,-0.105,1111122 
COMPS,ioos:station:USF.COMPS:BGC:1,2015-11-01T13:30:00Z,26.4040,-81.8810,-0.119,1111122 
COMPS,ioos:station:USF.COMPS:BGC:1,2015-11-01T13:36:00Z,26.4040,-81.8810,-0.132,1111122 
COMPS,ioos:station:USF.COMPS:BGC:1,2015-11-01T13:42:00Z,26.4040,-81.8810,-0.145,1111122 
COMPS,ioos:station:USF.COMPS:BGC:1,2015-11-01T13:48:00Z,26.4040,-81.8810,-0.157,1111122 
COMPS,ioos:station:USF.COMPS:BGC:1,2015-11-01T13:54:00Z,26.4040,-81.8810,-0.17,1111122 
COMPS,ioos:station:USF.COMPS:BGC:1,2015-11-01T14:00:00Z,26.4040,-81.8810,-0.188,1111122 
COMPS,ioos:station:USF.COMPS:BGC:1,2015-11-01T14:06:00Z,26.4040,-81.8810,-0.204,1111122 
COMPS,ioos:station:USF.COMPS:BGC:1,2015-11-01T14:12:00Z,26.4040,-81.8810,-0.215,1111122 
COMPS,ioos:station:USF.COMPS:BGC:1,2015-11-01T14:18:00Z,26.4040,-81.8810,-0.228,1111122 
COMPS,ioos:station:USF.COMPS:BGC:1,2015-11-01T14:24:00Z,26.4040,-81.8810,-0.235,1111122 
COMPS,ioos:station:USF.COMPS:BGC:1,2015-11-01T14:30:00Z,26.4040,-81.8810,-0.242,1111122 
COMPS,ioos:station:USF.COMPS:BGC:1,2015-11-01T14:36:00Z,26.4040,-81.8810,-0.251,1111122 
COMPS,ioos:station:USF.COMPS:BGC:1,2015-11-01T14:42:00Z,26.4040,-81.8810,-0.263,1111122 
COMPS,ioos:station:USF.COMPS:BGC:1,2015-11-01T14:48:00Z,26.4040,-81.8810,-0.273,1111122 
COMPS,ioos:station:USF.COMPS:BGC:1,2015-11-01T14:54:00Z,26.4040,-81.8810,-0.28,1111122 
COMPS,ioos:station:USF.COMPS:BGC:1,2015-11-01T15:00:00Z,26.4040,-81.8810,-0.28,1111122 
COMPS,ioos:station:USF.COMPS:BGC:1,2015-11-01T15:06:00Z,26.4040,-81.8810,-0.289,1111122 
COMPS,ioos:station:USF.COMPS:BGC:1,2015-11-01T15:12:00Z,26.4040,-81.8810,-0.293,1111122 
COMPS,ioos:station:USF.COMPS:BGC:1,2015-11-01T15:18:00Z,26.4040,-81.8810,-0.286,1111122 
COMPS,ioos:station:USF.COMPS:BGC:1,2015-11-01T15:24:00Z,26.4040,-81.8810,-0.292,1111122 
COMPS,ioos:station:USF.COMPS:BGC:1,2015-11-01T15:30:00Z,26.4040,-81.8810,-0.294,1111122 
COMPS,ioos:station:USF.COMPS:BGC:1,2015-11-01T15:36:00Z,26.4040,-81.8810,-0.294,1111122 
COMPS,ioos:station:USF.COMPS:BGC:1,2015-11-01T15:42:00Z,26.4040,-81.8810,-0.297,1111122 
COMPS,ioos:station:USF.COMPS:BGC:1,2015-11-01T15:48:00Z,26.4040,-81.8810,-0.29,1111122 
COMPS,ioos:station:USF.COMPS:BGC:1,2015-11-01T15:54:00Z,26.4040,-81.8810,-0.283,1111122 
COMPS,ioos:station:USF.COMPS:BGC:1,2015-11-01T16:00:00Z,26.4040,-81.8810,-0.279,1111122 
COMPS,ioos:station:USF.COMPS:BGC:1,2015-11-01T16:06:00Z,26.4040,-81.8810,-0.268,1111122 
COMPS,ioos:station:USF.COMPS:BGC:1,2015-11-01T16:12:00Z,26.4040,-81.8810,-0.262,1111122 
COMPS,ioos:station:USF.COMPS:BGC:1,2015-11-01T16:18:00Z,26.4040,-81.8810,-0.256,1111122 
COMPS,ioos:station:USF.COMPS:BGC:1,2015-11-01T16:24:00Z,26.4040,-81.8810,-0.239,1111122 
COMPS,ioos:station:USF.COMPS:BGC:1,2015-11-01T16:30:00Z,26.4040,-81.8810,-0.234,1111122 
COMPS,ioos:station:USF.COMPS:BGC:1,2015-11-01T16:36:00Z,26.4040,-81.8810,-0.225,1111122 
COMPS,ioos:station:USF.COMPS:BGC:1,2015-11-01T16:42:00Z,26.4040,-81.8810,-0.215,1111122 
COMPS,ioos:station:USF.COMPS:BGC:1,2015-11-01T16:48:00Z,26.4040,-81.8810,-0.209,1111122 
COMPS,ioos:station:USF.COMPS:BGC:1,2015-11-01T16:54:00Z,26.4040,-81.8810,-0.2,1111122 
COMPS,ioos:station:USF.COMPS:BGC:1,2015-11-01T17:00:00Z,26.4040,-81.8810,-0.191,1111122 
COMPS,ioos:station:USF.COMPS:BGC:1,2015-11-01T17:06:00Z,26.4040,-81.8810,-0.178,1111122 
COMPS,ioos:station:USF.COMPS:BGC:1,2015-11-01T17:12:00Z,26.4040,-81.8810,-0.167,1111122 
COMPS,ioos:station:USF.COMPS:BGC:1,2015-11-01T17:18:00Z,26.4040,-81.8810,-0.151,1111122 
COMPS,ioos:station:USF.COMPS:BGC:1,2015-11-01T17:24:00Z,26.4040,-81.8810,-0.14,1111122 
COMPS,ioos:station:USF.COMPS:BGC:1,2015-11-01T17:30:00Z,26.4040,-81.8810,-0.125,1111122 
COMPS,ioos:station:USF.COMPS:BGC:1,2015-11-01T17:36:00Z,26.4040,-81.8810,-0.103,1111122 
COMPS,ioos:station:USF.COMPS:BGC:1,2015-11-01T17:42:00Z,26.4040,-81.8810,-0.085,1111122 
COMPS,ioos:station:USF.COMPS:BGC:1,2015-11-01T17:48:00Z,26.4040,-81.8810,-0.076,1111122 
COMPS,ioos:station:USF.COMPS:BGC:1,2015-11-01T17:54:00Z,26.4040,-81.8810,-0.066,1111122 
COMPS,ioos:station:USF.COMPS:BGC:1,2015-11-01T18:00:00Z,26.4040,-81.8810,-0.051,1111122 
COMPS,ioos:station:USF.COMPS:BGC:1,2015-11-01T18:06:00Z,26.4040,-81.8810,-0.037,1111122 
COMPS,ioos:station:USF.COMPS:BGC:1,2015-11-01T18:12:00Z,26.4040,-81.8810,-0.029,1111122 
COMPS,ioos:station:USF.COMPS:BGC:1,2015-11-01T18:18:00Z,26.4040,-81.8810,-0.009,1111122 
COMPS,ioos:station:USF.COMPS:BGC:1,2015-11-01T18:24:00Z,26.4040,-81.8810,0.008,1111122 
COMPS,ioos:station:USF.COMPS:BGC:1,2015-11-01T18:30:00Z,26.4040,-81.8810,0.016,1111122 
COMPS,ioos:station:USF.COMPS:BGC:1,2015-11-01T18:36:00Z,26.4040,-81.8810,0.025,1111122 
COMPS,ioos:station:USF.COMPS:BGC:1,2015-11-01T18:42:00Z,26.4040,-81.8810,0.038,1111122 
COMPS,ioos:station:USF.COMPS:BGC:1,2015-11-01T18:48:00Z,26.4040,-81.8810,0.053,1111122 
COMPS,ioos:station:USF.COMPS:BGC:1,2015-11-01T18:54:00Z,26.4040,-81.8810,0.06,1111122 
COMPS,ioos:station:USF.COMPS:BGC:1,2015-11-01T19:00:00Z,26.4040,-81.8810,0.071,1111122 
COMPS,ioos:station:USF.COMPS:BGC:1,2015-11-01T19:06:00Z,26.4040,-81.8810,0.082,1111122 
COMPS,ioos:station:USF.COMPS:BGC:1,2015-11-01T19:12:00Z,26.4040,-81.8810,0.094,1111122 
COMPS,ioos:station:USF.COMPS:BGC:1,2015-11-01T19:18:00Z,26.4040,-81.8810,0.105,1111122 
COMPS,ioos:station:USF.COMPS:BGC:1,2015-11-01T19:24:00Z,26.4040,-81.8810,0.115,1111122 
COMPS,ioos:station:USF.COMPS:BGC:1,2015-11-01T19:30:00Z,26.4040,-81.8810,0.13,1111122 
COMPS,ioos:station:USF.COMPS:BGC:1,2015-11-01T19:36:00Z,26.4040,-81.8810,0.136,1111122 
COMPS,ioos:station:USF.COMPS:BGC:1,2015-11-01T19:42:00Z,26.4040,-81.8810,0.147,1111122 
COMPS,ioos:station:USF.COMPS:BGC:1,2015-11-01T19:48:00Z,26.4040,-81.8810,0.157,1111122 
COMPS,ioos:station:USF.COMPS:BGC:1,2015-11-01T19:54:00Z,26.4040,-81.8810,0.169,1111122 
COMPS,ioos:station:USF.COMPS:BGC:1,2015-11-01T20:00:00Z,26.4040,-81.8810,0.177,1111122 
COMPS,ioos:station:USF.COMPS:BGC:1,2015-11-01T20:06:00Z,26.4040,-81.8810,0.191,1111122 
COMPS,ioos:station:USF.COMPS:BGC:1,2015-11-01T20:12:00Z,26.4040,-81.8810,0.195,1111122 
COMPS,ioos:station:USF.COMPS:BGC:1,2015-11-01T20:18:00Z,26.4040,-81.8810,0.21,1111122 
COMPS,ioos:station:USF.COMPS:BGC:1,2015-11-01T20:24:00Z,26.4040,-81.8810,0.221,1111122 
COMPS,ioos:station:USF.COMPS:BGC:1,2015-11-01T20:30:00Z,26.4040,-81.8810,0.226,1111122 
COMPS,ioos:station:USF.COMPS:BGC:1,2015-11-01T20:36:00Z,26.4040,-81.8810,0.242,1111122 
COMPS,ioos:station:USF.COMPS:BGC:1,2015-11-01T20:42:00Z,26.4040,-81.8810,0.252,1111122 
COMPS,ioos:station:USF.COMPS:BGC:1,2015-11-01T20:48:00Z,26.4040,-81.8810,0.254,1111122 
COMPS,ioos:station:USF.COMPS:BGC:1,2015-11-01T20:54:00Z,26.4040,-81.8810,0.269,1111122 
COMPS,ioos:station:USF.COMPS:BGC:1,2015-11-01T21:00:00Z,26.4040,-81.8810,0.284,1111122 
COMPS,ioos:station:USF.COMPS:BGC:1,2015-11-01T21:06:00Z,26.4040,-81.8810,0.283,1111122 
COMPS,ioos:station:USF.COMPS:BGC:1,2015-11-01T21:12:00Z,26.4040,-81.8810,0.291,1111122 
COMPS,ioos:station:USF.COMPS:BGC:1,2015-11-01T21:18:00Z,26.4040,-81.8810,0.301,1111122 
COMPS,ioos:station:USF.COMPS:BGC:1,2015-11-01T21:24:00Z,26.4040,-81.8810,0.302,1111122 
COMPS,ioos:station:USF.COMPS:BGC:1,2015-11-01T21:30:00Z,26.4040,-81.8810,0.308,1111122 
COMPS,ioos:station:USF.COMPS:BGC:1,2015-11-01T21:36:00Z,26.4040,-81.8810,0.316,1111122 
COMPS,ioos:station:USF.COMPS:BGC:1,2015-11-01T21:42:00Z,26.4040,-81.8810,0.318,1111122 
COMPS,ioos:station:USF.COMPS:BGC:1,2015-11-01T21:48:00Z,26.4040,-81.8810,0.323,1111122 
COMPS,ioos:station:USF.COMPS:BGC:1,2015-11-01T21:54:00Z,26.4040,-81.8810,0.329,1111122 
COMPS,ioos:station:USF.COMPS:BGC:1,2015-11-01T22:00:00Z,26.4040,-81.8810,0.329,1111122 
COMPS,ioos:station:USF.COMPS:BGC:1,2015-11-01T22:06:00Z,26.4040,-81.8810,0.338,1111122 
COMPS,ioos:station:USF.COMPS:BGC:1,2015-11-01T22:12:00Z,26.4040,-81.8810,0.338,1111122 
COMPS,ioos:station:USF.COMPS:BGC:1,2015-11-01T22:18:00Z,26.4040,-81.8810,0.343,1111122 
COMPS,ioos:station:USF.COMPS:BGC:1,2015-11-01T22:24:00Z,26.4040,-81.8810,0.343,1111122 
COMPS,ioos:station:USF.COMPS:BGC:1,2015-11-01T22:30:00Z,26.4040,-81.8810,0.337,1111122 
COMPS,ioos:station:USF.COMPS:BGC:1,2015-11-01T22:36:00Z,26.4040,-81.8810,0.333,1111122 
COMPS,ioos:station:USF.COMPS:BGC:1,2015-11-01T22:42:00Z,26.4040,-81.8810,0.329,1111122 
COMPS,ioos:station:USF.COMPS:BGC:1,2015-11-01T22:48:00Z,26.4040,-81.8810,0.328,1111122 
COMPS,ioos:station:USF.COMPS:BGC:1,2015-11-01T22:54:00Z,26.4040,-81.8810,0.315,1111122 
COMPS,ioos:station:USF.COMPS:BGC:1,2015-11-01T23:00:00Z,26.4040,-81.8810,0.321,1111122 
COMPS,ioos:station:USF.COMPS:BGC:1,2015-11-01T23:06:00Z,26.4040,-81.8810,0.316,1111122 
COMPS,ioos:station:USF.COMPS:BGC:1,2015-11-01T23:12:00Z,26.4040,-81.8810,0.302,1111122 
COMPS,ioos:station:USF.COMPS:BGC:1,2015-11-01T23:18:00Z,26.4040,-81.8810,0.298,1111122 
COMPS,ioos:station:USF.COMPS:BGC:1,2015-11-01T23:24:00Z,26.4040,-81.8810,0.296,1111122 
COMPS,ioos:station:USF.COMPS:BGC:1,2015-11-01T23:30:00Z,26.4040,-81.8810,0.289,1111122 
COMPS,ioos:station:USF.COMPS:BGC:1,2015-11-01T23:36:00Z,26.4040,-81.8810,0.284,1111122 
COMPS,ioos:station:USF.COMPS:BGC:1,2015-11-01T23:42:00Z,26.4040,-81.8810,0.282,1111122 
COMPS,ioos:station:USF.COMPS:BGC:1,2015-11-01T23:48:00Z,26.4040,-81.8810,0.273,1111122 
COMPS,ioos:station:USF.COMPS:BGC:1,2015-11-01T23:54:00Z,26.4040,-81.8810,0.262,1111122 
COMPS,ioos:station:USF.COMPS:BGC:1,2015-11-02T00:00:00Z,26.4040,-81.8810,0.25,1111122 
COMPS,ioos:station:USF.COMPS:BGC:1,2015-11-02T00:06:00Z,26.4040,-81.8810,0.24,1111122 
COMPS,ioos:station:USF.COMPS:BGC:1,2015-11-02T00:12:00Z,26.4040,-81.8810,0.237,1111122 
COMPS,ioos:station:USF.COMPS:BGC:1,2015-11-02T00:18:00Z,26.4040,-81.8810,0.223,1111122 
COMPS,ioos:station:USF.COMPS:BGC:1,2015-11-02T00:24:00Z,26.4040,-81.8810,0.221,1111122 
COMPS,ioos:station:USF.COMPS:BGC:1,2015-11-02T00:30:00Z,26.4040,-81.8810,0.215,1111122 
COMPS,ioos:station:USF.COMPS:BGC:1,2015-11-02T00:36:00Z,26.4040,-81.8810,0.203,1111122 
COMPS,ioos:station:USF.COMPS:BGC:1,2015-11-02T00:42:00Z,26.4040,-81.8810,0.207,1111122 
COMPS,ioos:station:USF.COMPS:BGC:1,2015-11-02T00:48:00Z,26.4040,-81.8810,0.202,1111122 
COMPS,ioos:station:USF.COMPS:BGC:1,2015-11-02T00:54:00Z,26.4040,-81.8810,0.193,1111122 
COMPS,ioos:station:USF.COMPS:BGC:1,2015-11-02T01:00:00Z,26.4040,-81.8810,0.194,1111122 
COMPS,ioos:station:USF.COMPS:BGC:1,2015-11-02T01:06:00Z,26.4040,-81.8810,0.186,1111122 
COMPS,ioos:station:USF.COMPS:BGC:1,2015-11-02T01:12:00Z,26.4040,-81.8810,0.181,1111122 
COMPS,ioos:station:USF.COMPS:BGC:1,2015-11-02T01:18:00Z,26.4040,-81.8810,0.188,1111122 
COMPS,ioos:station:USF.COMPS:BGC:1,2015-11-02T01:24:00Z,26.4040,-81.8810,0.187,1111122 
COMPS,ioos:station:USF.COMPS:BGC:1,2015-11-02T01:30:00Z,26.4040,-81.8810,0.187,1111122 
COMPS,ioos:station:USF.COMPS:BGC:1,2015-11-02T01:36:00Z,26.4040,-81.8810,0.181,1111122 
COMPS,ioos:station:USF.COMPS:BGC:1,2015-11-02T01:42:00Z,26.4040,-81.8810,0.187,1111122 
COMPS,ioos:station:USF.COMPS:BGC:1,2015-11-02T01:48:00Z,26.4040,-81.8810,0.171,1111122 
COMPS,ioos:station:USF.COMPS:BGC:1,2015-11-02T01:54:00Z,26.4040,-81.8810,0.168,1111122 
COMPS,ioos:station:USF.COMPS:BGC:1,2015-11-02T02:00:00Z,26.4040,-81.8810,0.172,1111122 
COMPS,ioos:station:USF.COMPS:BGC:1,2015-11-02T02:06:00Z,26.4040,-81.8810,0.17,1111122 
COMPS,ioos:station:USF.COMPS:BGC:1,2015-11-02T02:12:00Z,26.4040,-81.8810,0.164,1111122 
COMPS,ioos:station:USF.COMPS:BGC:1,2015-11-02T02:18:00Z,26.4040,-81.8810,0.17,1111122 
COMPS,ioos:station:USF.COMPS:BGC:1,2015-11-02T02:24:00Z,26.4040,-81.8810,0.173,1111122 
COMPS,ioos:station:USF.COMPS:BGC:1,2015-11-02T02:30:00Z,26.4040,-81.8810,0.165,1111122 
COMPS,ioos:station:USF.COMPS:BGC:1,2015-11-02T02:36:00Z,26.4040,-81.8810,0.171,1111122 
COMPS,ioos:station:USF.COMPS:BGC:1,2015-11-02T02:42:00Z,26.4040,-81.8810,0.165,1111122 
COMPS,ioos:station:USF.COMPS:BGC:1,2015-11-02T02:48:00Z,26.4040,-81.8810,0.15,1111122 
COMPS,ioos:station:USF.COMPS:BGC:1,2015-11-02T02:54:00Z,26.4040,-81.8810,0.159,1111122 
COMPS,ioos:station:USF.COMPS:BGC:1,2015-11-02T03:00:00Z,26.4040,-81.8810,0.152,1111122 
COMPS,ioos:station:USF.COMPS:BGC:1,2015-11-02T03:06:00Z,26.4040,-81.8810,0.152,1111122 
COMPS,ioos:station:USF.COMPS:BGC:1,2015-11-02T03:12:00Z,26.4040,-81.8810,0.155,1111122 
COMPS,ioos:station:USF.COMPS:BGC:1,2015-11-02T03:18:00Z,26.4040,-81.8810,0.15,1111122 
COMPS,ioos:station:USF.COMPS:BGC:1,2015-11-02T03:24:00Z,26.4040,-81.8810,0.148,1111122 
COMPS,ioos:station:USF.COMPS:BGC:1,2015-11-02T03:30:00Z,26.4040,-81.8810,0.154,1111122 
COMPS,ioos:station:USF.COMPS:BGC:1,2015-11-02T03:36:00Z,26.4040,-81.8810,0.161,1111122 
COMPS,ioos:station:USF.COMPS:BGC:1,2015-11-02T03:42:00Z,26.4040,-81.8810,0.151,1111122 
COMPS,ioos:station:USF.COMPS:BGC:1,2015-11-02T03:48:00Z,26.4040,-81.8810,0.146,1111122 
COMPS,ioos:station:USF.COMPS:BGC:1,2015-11-02T03:54:00Z,26.4040,-81.8810,0.154,1111122 
COMPS,ioos:station:USF.COMPS:BGC:1,2015-11-02T04:00:00Z,26.4040,-81.8810,0.148,1111122 
COMPS,ioos:station:USF.COMPS:BGC:1,2015-11-02T04:06:00Z,26.4040,-81.8810,0.156,1111122 
COMPS,ioos:station:USF.COMPS:BGC:1,2015-11-02T04:12:00Z,26.4040,-81.8810,0.169,1111122 
COMPS,ioos:station:USF.COMPS:BGC:1,2015-11-02T04:18:00Z,26.4040,-81.8810,0.171,1111122 
COMPS,ioos:station:USF.COMPS:BGC:1,2015-11-02T04:24:00Z,26.4040,-81.8810,0.169,1111122 
COMPS,ioos:station:USF.COMPS:BGC:1,2015-11-02T04:30:00Z,26.4040,-81.8810,0.182,1111122 
COMPS,ioos:station:USF.COMPS:BGC:1,2015-11-02T04:36:00Z,26.4040,-81.8810,0.183,1111122 
COMPS,ioos:station:USF.COMPS:BGC:1,2015-11-02T04:42:00Z,26.4040,-81.8810,0.182,1111122 
COMPS,ioos:station:USF.COMPS:BGC:1,2015-11-02T04:48:00Z,26.4040,-81.8810,0.196,1111122 
COMPS,ioos:station:USF.COMPS:BGC:1,2015-11-02T04:54:00Z,26.4040,-81.8810,0.2,1111122 
COMPS,ioos:station:USF.COMPS:BGC:1,2015-11-02T05:00:00Z,26.4040,-81.8810,0.209,1111122 
COMPS,ioos:station:USF.COMPS:BGC:1,2015-11-02T05:06:00Z,26.4040,-81.8810,0.218,1111122 
COMPS,ioos:station:USF.COMPS:BGC:1,2015-11-02T05:12:00Z,26.4040,-81.8810,0.223,1111122 
COMPS,ioos:station:USF.COMPS:BGC:1,2015-11-02T05:18:00Z,26.4040,-81.8810,0.221,1111122 
COMPS,ioos:station:USF.COMPS:BGC:1,2015-11-02T05:24:00Z,26.4040,-81.8810,0.234,1111122 
COMPS,ioos:station:USF.COMPS:BGC:1,2015-11-02T05:30:00Z,26.4040,-81.8810,0.238,1111122 
COMPS,ioos:station:USF.COMPS:BGC:1,2015-11-02T05:36:00Z,26.4040,-81.8810,0.239,1111122 
COMPS,ioos:station:USF.COMPS:BGC:1,2015-11-02T05:42:00Z,26.4040,-81.8810,0.245,1111122 
COMPS,ioos:station:USF.COMPS:BGC:1,2015-11-02T05:48:00Z,26.4040,-81.8810,0.258,1111122 
COMPS,ioos:station:USF.COMPS:BGC:1,2015-11-02T05:54:00Z,26.4040,-81.8810,0.259,1111122 
COMPS,ioos:station:USF.COMPS:BGC:1,2015-11-02T06:00:00Z,26.4040,-81.8810,0.27,1111122 
COMPS,ioos:station:USF.COMPS:BGC:1,2015-11-02T06:06:00Z,26.4040,-81.8810,0.278,1111122 
COMPS,ioos:station:USF.COMPS:BGC:1,2015-11-02T06:12:00Z,26.4040,-81.8810,0.276,1111122 
COMPS,ioos:station:USF.COMPS:BGC:1,2015-11-02T06:18:00Z,26.4040,-81.8810,0.283,1111122 
COMPS,ioos:station:USF.COMPS:BGC:1,2015-11-02T06:24:00Z,26.4040,-81.8810,0.289,1111122 
COMPS,ioos:station:USF.COMPS:BGC:1,2015-11-02T06:30:00Z,26.4040,-81.8810,0.29,1111122 
COMPS,ioos:station:USF.COMPS:BGC:1,2015-11-02T06:36:00Z,26.4040,-81.8810,0.3,1111122 
COMPS,ioos:station:USF.COMPS:BGC:1,2015-11-02T06:42:00Z,26.4040,-81.8810,0.302,1111122 
COMPS,ioos:station:USF.COMPS:BGC:1,2015-11-02T06:48:00Z,26.4040,-81.8810,0.305,1111122 
COMPS,ioos:station:USF.COMPS:BGC:1,2015-11-02T06:54:00Z,26.4040,-81.8810,0.311,1111122 
COMPS,ioos:station:USF.COMPS:BGC:1,2015-11-02T07:00:00Z,26.4040,-81.8810,0.317,1111122 
COMPS,ioos:station:USF.COMPS:BGC:1,2015-11-02T07:06:00Z,26.4040,-81.8810,0.325,1111122 
COMPS,ioos:station:USF.COMPS:BGC:1,2015-11-02T07:12:00Z,26.4040,-81.8810,0.325,1111122 
COMPS,ioos:station:USF.COMPS:BGC:1,2015-11-02T07:18:00Z,26.4040,-81.8810,0.327,1111122 
COMPS,ioos:station:USF.COMPS:BGC:1,2015-11-02T07:24:00Z,26.4040,-81.8810,0.329,1111122 
COMPS,ioos:station:USF.COMPS:BGC:1,2015-11-02T07:30:00Z,26.4040,-81.8810,0.332,1111122 
COMPS,ioos:station:USF.COMPS:BGC:1,2015-11-02T07:36:00Z,26.4040,-81.8810,0.338,1111122 
COMPS,ioos:station:USF.COMPS:BGC:1,2015-11-02T07:42:00Z,26.4040,-81.8810,0.345,1111122 
COMPS,ioos:station:USF.COMPS:BGC:1,2015-11-02T07:48:00Z,26.4040,-81.8810,0.35,1111122 
COMPS,ioos:station:USF.COMPS:BGC:1,2015-11-02T07:54:00Z,26.4040,-81.8810,0.352,1111122 
COMPS,ioos:station:USF.COMPS:BGC:1,2015-11-02T08:00:00Z,26.4040,-81.8810,0.35,1111122 
COMPS,ioos:station:USF.COMPS:BGC:1,2015-11-02T08:06:00Z,26.4040,-81.8810,0.346,1111122 
COMPS,ioos:station:USF.COMPS:BGC:1,2015-11-02T08:12:00Z,26.4040,-81.8810,0.365,1111122 
COMPS,ioos:station:USF.COMPS:BGC:1,2015-11-02T08:18:00Z,26.4040,-81.8810,0.365,1111122 
COMPS,ioos:station:USF.COMPS:BGC:1,2015-11-02T08:24:00Z,26.4040,-81.8810,0.362,1111122 
COMPS,ioos:station:USF.COMPS:BGC:1,2015-11-02T08:30:00Z,26.4040,-81.8810,0.369,1111122 
COMPS,ioos:station:USF.COMPS:BGC:1,2015-11-02T08:36:00Z,26.4040,-81.8810,0.379,1111122 
COMPS,ioos:station:USF.COMPS:BGC:1,2015-11-02T08:42:00Z,26.4040,-81.8810,0.375,1111122 
COMPS,ioos:station:USF.COMPS:BGC:1,2015-11-02T08:48:00Z,26.4040,-81.8810,0.375,1111122 
COMPS,ioos:station:USF.COMPS:BGC:1,2015-11-02T08:54:00Z,26.4040,-81.8810,0.388,1111122 
COMPS,ioos:station:USF.COMPS:BGC:1,2015-11-02T09:00:00Z,26.4040,-81.8810,0.383,1111122 
COMPS,ioos:station:USF.COMPS:BGC:1,2015-11-02T09:06:00Z,26.4040,-81.8810,0.381,1111122 
COMPS,ioos:station:USF.COMPS:BGC:1,2015-11-02T09:12:00Z,26.4040,-81.8810,0.389,1111122 
COMPS,ioos:station:USF.COMPS:BGC:1,2015-11-02T09:18:00Z,26.4040,-81.8810,0.391,1111122 
COMPS,ioos:station:USF.COMPS:BGC:1,2015-11-02T09:24:00Z,26.4040,-81.8810,0.392,1111122 
COMPS,ioos:station:USF.COMPS:BGC:1,2015-11-02T09:30:00Z,26.4040,-81.8810,0.39,1111122 
COMPS,ioos:station:USF.COMPS:BGC:1,2015-11-02T09:36:00Z,26.4040,-81.8810,0.391,1111122 
COMPS,ioos:station:USF.COMPS:BGC:1,2015-11-02T09:42:00Z,26.4040,-81.8810,0.394,1111122 
COMPS,ioos:station:USF.COMPS:BGC:1,2015-11-02T09:48:00Z,26.4040,-81.8810,0.396,1111122 
COMPS,ioos:station:USF.COMPS:BGC:1,2015-11-02T09:54:00Z,26.4040,-81.8810,0.392,1111122 
COMPS,ioos:station:USF.COMPS:BGC:1,2015-11-02T10:00:00Z,26.4040,-81.8810,0.385,1111122 